This is the latest recevied weather packets stored in our database for station/object AA7VG. If no packets are shown the sender has not sent any weather packets the latest 10 day(s).
| Time | Temp. | Humidity | Pressure | Rain* | Wind** | Luminosity | Snow |
|---|---|---|---|---|---|---|---|
| 1778050041 | 0.56° C | 67% | 1018.4 hPa | 0 mm | - | - | - |
| 1778049736 | 0.56° C | 67% | 1018.6 hPa | 0 mm | - | - | - |
| 1778049435 | 1.11° C | 64% | 1018.4 hPa | 0 mm | - | - | - |
| 1778049131 | 1.67° C | 60% | 1018.6 hPa | 0 mm | - | - | - |
| 1778048830 | 1.67° C | 59% | 1018.4 hPa | 0 mm | - | - | - |
| 1778048527 | 1.67° C | 58% | 1018.3 hPa | 0 mm | - | - | - |
| 1778048223 | 1.67° C | 59% | 1018.4 hPa | 0 mm | - | - | - |
| 1778047920 | 1.67° C | 58% | 1018.3 hPa | 0 mm | - | - | - |
| 1778047619 | 1.67° C | 57% | 1018.3 hPa | 0 mm | - | - | - |
| 1778047315 | 1.11° C | 58% | 1018.4 hPa | 0 mm | - | - | - |
| 1778047012 | 1.11° C | 58% | 1018.3 hPa | 0 mm | - | - | - |
| 1778046709 | 1.11° C | 59% | 1018.6 hPa | 0 mm | - | - | - |
| 1778046406 | 1.11° C | 58% | 1018.7 hPa | 0 mm | - | - | - |
| 1778046102 | 0.56° C | 60% | 1018.6 hPa | 0 mm | - | - | - |
| 1778045800 | 0.56° C | 60% | 1018.6 hPa | 0 mm | - | - | - |
| 1778045499 | 0.56° C | 60% | 1018.6 hPa | 0 mm | - | - | - |
| 1778045196 | 0.56° C | 59% | 1018.5 hPa | 0 mm | - | - | - |
| 1778044894 | 0.56° C | 58% | 1018.3 hPa | 0 mm | - | - | - |
| 1778044591 | 0.56° C | 58% | 1018.6 hPa | 0 mm | - | - | - |
| 1778044287 | 0.56° C | 59% | 1018.6 hPa | 0 mm | - | - | - |
| 1778043985 | 0.56° C | 58% | 1018.4 hPa | 0 mm | - | - | - |
| 1778043682 | 1.11° C | 57% | 1018.4 hPa | 0 mm | - | - | - |
| 1778043379 | 1.67° C | 55% | 1018.4 hPa | 0 mm | - | - | - |
| 1778043075 | 1.67° C | 55% | 1018.4 hPa | 0 mm | - | - | - |
| 1778042773 | 1.67° C | 54% | 1018.7 hPa | 0 mm | - | - | - |
* Rain latest hour (hover to see other rain measurements)
** Current wind speed in m/s (hover to see current wind gust speed)